EHI
0 0 0 0 0 0 0 0 0 0 0 0 0 0 0 0 0 0 0 0 0 0 0 0 0 0 0 0 0 0 0 0 0 0 0 0 0 0
0 0 0 0 0 0 0 0 0 0 0 0 0 0 0 0 0 0 0 0 0 0 0 0 0 0 0 0 0 0 0 0 0 0 0 0 0 0
0 0 0 0 0 0 0 0 0 0 0 0 0 0 0 0 0 0 0 0 0 0 0 0 0 0 0 0 0 0 0 0 0 0 0 0 0 0
0 0 0 0 0 0 0 0 0 0 0 0 0 0 0 0 0 0 0 0 0 0 0 0 0 0 0 0 0 0 0 0 0 0 0 0 0 0
0 0 0 0 0 0 0 0 0 0 0 0 0 0 0 0 0 0 0 0 0 0 0 0 0 0 0 0 0 0 0 0 0 0 0 0 0 0
0 0 0 0 0 0 0 0 0 0 0 0 0 0 0 0 0 0 0 0 0 0 0 0 0 0 0 0 0 0 0 0 0 0 0 0 0 0
0 0 0 0 0 0 0 0 0 0 0 0 0 0 0 0 0 0 0 0 0 0 0 0 0 0 0 0 0 0 0 0 0 0 0 0 0 0
0 0 0 0 0 0 0 0 0 0 0 0 0 0 0 0 0 0 0 0 0 0 0 0 0 0 0 0 0 0 0 0 0 0 0 0 0 0
0 0 0 0 0 0 0 0 0 0 0 0 0 0 0 0 0 0 0 0 0 0 0 0 0 0 0 0 0 0 0 0 0 0 0 0 0 0
0 0 0 0 0 0 0 0 0 0 0 0 0 0 0 0 0 0 0 0 0 0 0 0 0 0 0 0 0 0 0 0 0 0 0 0 0 0
0 0 0 0 0 0 0 0 0 0 0 0 0 0 0 0 0 0 0 0 0 0 0 0 0 0 0 0 0 0 0 0 0 0 0 0 0 0
0 0 0 0 0 0 0 0 0 0 0 0 0 0 0 0 0 0 0 0 0 0 0 0 0 0 0 0 0 0 0 0 0 0 0 0 0 0
0 0 0 0 0 0 0 0 0 0 0 0 0 0 0 0 0 0 0 0 0 0 0 0 0 0 0 0 0 0 0 0 0 0 0 0 0 0
0 0 0 0 0 0 0 0 0 0 0 0 0 0 0 0 0 0 0 0 0 0 0 0 0 0 0 0 0 0 0 0 0 0 0 0 0 0
0 0 0 0 0 0 0 0 0 0 0 0 0 0 0 0 0 0 0 0 0 0 0 0 0 0 0 0 0 0 0 0 0 0 0 0 0 0
0 0 0 0 0 0 0 0 0 0 0 0 0 0 0 0 0 0 0 0 0 0 0 0 0 0 0 0 0 0 0 0 0 0 0 0 0 0
0 0 0 0 0 0 0 0 0 0 0 0 0 0 0 0 0 0 0 0 0 0 0 0 0 0 0 0 0 0 0 0 0 0 0 0 0 0
0 0 0 0 0 0 0 0 0 0 0 0 0 0 0 0 0 0 0 0 0 0 0 0 0 0 0 0 0 0 0 0 0 0 0 0 0 0
0 0 0 0 0 0 0 0 0 0 0 0 0 0 0 0 0 0 0 0 0 0 0 0 0 0 0 0 0 0 0 0 0 0 0 0 0 0
0 0 0 0 0 0 0 0 0 0 0 0 0 0 0 0 0 0 0 0 0 0 0 0 0 0 0 0 0 0 0 0 0 0 0 0 0 0
0 0 0 0 0 0 0 0 0 0 0 0 0 0 0 0 0 0 0 0 0 0 0 0 0 0 0 0 0 0 0 0 0 0 0 0 0 0
0 0 0 0 0 0 0 0 0 0 0 0 0 0 0 0 0 0 0 0 0 0 0 0 0 0 0 0 0 0 0 0 0 0 0 0 0 0
0 0 0 0 0 0 0 0 0 0 0 0 0 0 0 0 0 0 0 0 0 0 0 0 0 0 0 0 0 0 0 0 0 0 0 0 0 0
Wind_Speed
5 5 4 3 2 2 3 3 4 4 3 3 3 2 1 1 2 1 3 6 6 6 7 8 8 9 9 10 10 10 10 9 8 7 6 4 4 4
4 5 4 3 3 2 2 3 3 4 3 1 2 2 2 2 2 2 3 4 5 5 6 7 7 8 9 10 10 11 10 9 8 8 6 5 3 3
5 5 5 4 3 3 2 2 3 3 5 2 1 2 3 3 2 1 1 2 2 5 5 6 6 7 8 9 11 11 11 10 10 9 7 6 4 3
7 6 6 4 5 3 3 3 3 3 4 4 2 2 2 2 2 2 1 1 2 5 5 5 6 6 7 8 10 11 11 12 11 10 9 8 6 5
6 6 6 6 6 4 4 3 2 2 3 3 2 1 1 2 2 1 1 0 1 2 3 4 5 6 7 8 9 10 11 11 11 11 11 10 9 8
5 5 6 6 5 5 4 3 3 3 3 3 2 2 2 2 2 2 2 1 1 1 1 2 3 4 6 7 8 9 9 10 11 11 11 11 11 10
6 5 5 4 4 4 3 3 4 3 3 3 3 3 3 3 3 2 2 2 1 1 1 0 0 0 2 4 6 7 8 8 9 10 10 11 11 11
6 6 5 5 6 6 5 3 2 3 4 3 4 4 4 3 3 2 2 2 3 2 2 1 1 0 1 2 5 6 7 7 8 9 10 11 11 11
6 6 5 5 7 5 6 6 3 1 2 4 5 4 4 4 4 4 3 2 1 1 2 1 1 1 1 2 5 5 5 6 7 8 8 9 10 10
6 7 7 7 7 7 6 5 4 3 2 3 3 2 1 2 3 3 2 2 1 1 2 2 1 1 1 0 4 4 4 4 5 6 6 7 8 8
6 7 7 7 9 10 7 6 5 4 3 2 2 3 3 3 3 3 3 3 2 2 1 2 1 1 1 1 1 3 3 4 4 5 5 6 6 4
6 6 8 8 11 12 8 7 6 5 5 5 4 5 4 4 4 3 3 2 1 2 2 1 1 1 1 1 1 1 1 1 2 3 4 4 5 3
6 6 6 12 12 13 10 6 6 5 5 5 4 4 3 3 3 2 1 2 2 1 2 1 1 1 1 1 1 1 1 1 1 1 1 3 4 4
7 6 7 13 13 13 10 8 9 7 4 4 4 4 4 3 3 2 2 1 0 0 1 1 1 1 1 1 1 1 2 2 2 2 2 3 3 4
6 8 10 13 13 11 12 12 10 6 5 5 5 4 3 3 3 3 3 2 2 1 2 2 2 2 2 2 2 1 2 2 2 2 3 3 3 3
7 9 12 12 10 8 9 9 7 6 6 5 5 4 4 4 4 4 3 3 3 3 3 3 3 3 3 4 4 4 3 3 2 2 3 4 4 4
8 6 6 7 8 7 7 7 7 7 7 6 5 5 5 5 4 4 3 4 4 3 4 4 4 4 5 4 5 5 5 4 4 3 3 5 5 5
10 7 8 8 9 9 8 8 8 8 7 6 6 6 6 6 5 5 5 5 5 4 4 3 3 3 4 6 10 7 5 4 3 3 4 4 5 4
10 8 8 9 8 8 8 8 8 8 7 7 7 6 6 6 6 6 6 6 6 5 4 4 4 4 4 4 5 9 5 3 3 4 4 5 5 5
9 9 9 8 8 8 8 8 7 7 7 7 7 7 7 7 7 7 7 7 6 6 5 5 6 7 6 3 2 3 9 6 4 5 4 5 6 8
9 9 8 8 8 8 8 7 8 7 8 7 7 8 7 7 7 7 7 9 8 6 7 6 6 7 3 2 4 5 5 10 10 5 4 5 5 5
8 9 8 8 8 8 8 8 8 8 8 8 8 8 8 8 8 9 8 7 8 7 7 4 4 5 5 6 7 6 5 5 9 14 15 12 6 5
7 8 8 8 8 7 7 8 9 8 8 8 8 7 8 8 7 7 8 8 7 7 6 5 5 6 6 7 7 7 8 7 6 7 9 14 21 24
Wind_Direction
189 190 190 183 193 209 221 233 244 254 243 198 177 160 155 124 75 42 48 47 45 46 43 35 26 20 18 16 13 12 8 6 1 351 338 324 293 278
178 182 181 177 178 189 203 220 240 254 258 170 174 159 166 148 106 75 57 53 51 49 46 38 29 24 21 19 18 16 13 12 8 359 352 340 333 312
175 182 180 176 176 179 188 207 223 238 254 239 163 170 184 175 143 103 52 24 50 45 41 38 35 29 26 25 24 22 19 17 14 11 8 4 5 8
177 178 177 174 179 178 189 206 217 226 249 247 194 183 192 180 163 141 80 36 29 40 38 37 37 34 30 31 29 25 22 22 21 20 19 22 29 29
179 182 181 182 187 185 191 200 210 221 237 245 213 166 166 168 173 163 157 137 42 26 34 38 36 34 32 33 31 27 24 24 26 30 32 32 34 36
174 180 181 189 192 186 190 197 205 217 221 228 214 189 184 176 198 198 199 188 211 341 22 27 33 36 36 34 33 28 26 26 28 32 37 37 36 35
171 174 175 175 174 178 184 193 203 217 219 219 214 201 197 193 203 188 204 189 196 268 257 194 300 7 38 36 36 30 27 30 33 36 40 41 40 39
171 168 162 164 166 171 172 179 208 224 220 218 220 219 212 201 180 185 186 203 205 161 253 194 240 202 40 26 26 26 32 39 40 40 41 42 42 42
173 170 171 171 173 174 165 163 169 194 253 248 240 231 214 197 185 191 198 221 209 94 267 208 188 197 93 33 20 22 34 42 43 41 41 41 41 41
181 183 182 180 184 182 179 178 180 175 189 233 248 240 210 167 181 196 183 176 152 149 267 248 191 203 162 137 35 24 33 40 41 39 39 39 38 37
185 192 193 191 185 185 184 183 186 173 139 117 89 110 119 139 163 164 173 195 202 169 185 257 214 237 225 192 93 32 24 31 31 33 33 32 27 16
186 193 201 199 188 189 193 193 196 186 170 158 153 150 152 154 180 207 190 199 205 177 156 223 196 244 228 179 195 221 232 31 14 14 11 7 356 334
188 191 194 198 198 197 199 204 199 185 181 181 179 174 174 173 175 177 180 197 208 196 138 167 198 205 245 244 212 216 259 276 280 294 326 342 338 326
195 193 191 194 200 201 200 198 190 186 185 189 196 196 193 187 175 164 148 132 97 165 126 147 192 209 236 252 232 211 235 252 270 280 291 295 291 295
197 192 189 193 198 203 206 197 192 195 194 200 204 202 192 176 161 155 155 160 181 182 171 194 210 204 236 258 275 269 277 255 256 267 271 271 273 274
194 192 193 196 199 201 199 199 202 202 202 209 205 192 173 172 188 186 189 189 206 196 173 189 212 211 232 245 256 261 254 265 262 257 272 270 264 257
175 176 183 187 195 197 200 201 199 199 206 208 200 193 191 192 193 190 196 198 214 210 190 184 196 220 247 257 253 249 250 250 252 257 264 271 262 254
176 185 192 196 200 199 199 200 202 204 204 200 201 201 200 199 195 188 196 208 220 223 215 191 187 212 230 234 223 248 254 251 246 235 247 268 272 257
191 197 200 201 202 202 201 202 204 202 198 199 201 201 201 201 200 199 201 210 219 222 216 199 198 212 238 254 196 208 236 245 244 243 241 249 268 274
200 201 203 202 202 202 202 203 203 198 197 202 201 200 200 201 204 206 206 210 215 215 215 207 209 213 224 258 273 212 217 236 246 254 259 262 268 271
201 203 203 202 202 202 203 202 201 200 197 197 200 200 199 201 208 210 210 212 214 216 220 220 216 208 217 237 253 247 226 223 234 247 261 273 278 270
203 204 203 202 200 200 200 199 200 202 199 201 201 200 200 202 208 209 209 209 212 218 225 217 172 179 197 221 242 254 250 232 236 243 247 243 249 256
206 205 203 201 200 198 196 198 200 202 201 201 201 200 198 201 207 208 209 212 214 214 214 209 198 202 215 227 243 253 258 254 252 251 247 241 242 251